sat.trackr.live / text

‹ back to catalog

TIANQI-30

NORAD 61196 · 2024-170B

PAYLOAD ACTIVE UNKNOWN

§ Identity

Operator
Country
PRC
Launch date
2024-09-20
Launch site
XICLF
Launch vehicle
Mass (kg)
RCS (m²)

External: N2YO · Heavens-Above · Gunter

§ Orbital elements

Epoch: 2026-09-22T20:09:54.995904Z

Period
103.02 min
Inclination
44.8585°
Eccentricity
0.0009147
Mean motion
13.97723787 rev/d
Perigee alt
895.0 km
Apogee alt
908.3 km
Semi-major
7,279.8 km
B*
8.1648e-5
RAAN
62.5100°
Arg perigee
199.4969°
Mean anomaly
160.5513°
Rev number
10,271

§ Raw data

TIANQI-301 61196U 24170B   26265.84021986 -.00000011  00000+0  81648-4 0  99992 61196  44.8585  62.5100 0009147 199.4969 160.5513 13.97723787102717

JSON: /api/v1/satellites/61196 · /tle

For live sub-satellite position, see the globe view (requires WebGL).

§ Visibility from observer

Set your observer location to see the next 7 days of passes ≥ 10°. The values pass through the URL so the page stays shareable.

No JS? Fill the form by hand. The geolocation button needs JavaScript.